Weather History for Aberdeen / Amory, MS

Change the Weather History Date:

Friday, April 5, 2013

  Actual Average (KCBM) Record (KCBM)
Temperature  
Mean Temperature 56 °F -  
Max Temperature 69 °F 70 °F 84 °F (1999)
Min Temperature 42 °F 49 °F 32 °F (2004)
Degree Days  
Heating Degree Days 8    
Growing Degree Days 6 (Base 50)    
Moisture  
Dew Point 39 °F    
Average Humidity 56    
Maximum Humidity 61    
Minimum Humidity 53    
Precipitation  
Precipitation 0.00 in - - ()
Sea Level Pressure  
Sea Level Pressure 30.10 in    
Wind  
Wind Speed 6 mph (North)    
Max Wind Speed 13 mph    
Max Gust Speed 17 mph    
Visibility 8 miles    
Events      
Averages and records for this station are not official NWS values.
T = Trace of Precipitation, MM = Missing Value Source: NWS Daily Summary

Daily Weather History Graph

Daily Weather History Graph

Search for Another Location

Airport:

Trip Planner

Search our weather history database for the weather conditions in past years. The results will help you decide how hot, cold, wet, or windy it might be!

Date:

Astronomy

Apr. 05, 2013 Rise Set
Actual Time 6:35 AM CDT 7:17 PM CDT
Civil Twilight 6:10 AM CDT 7:43 PM CDT
Nautical Twilight 5:40 AM CDT 8:13 PM CDT
Astronomical Twilight 5:10 AM CDT 8:43 PM CDT
Moon 3:29 AM CDT (4/5) 2:53 PM CDT (4/5)
Length of Visible Light 13h 32m
Length of Day
12h 42m
Waning Crescent, 23% of the Moon is Illuminated
Apr 5
Waning Crescent
Apr 10
New
Apr 18
First Quarter
Apr 25
Full
May 2
Last Quarter

Hourly Weather History & Observations

Time (CDT) Temp. Windchill Dew Point Humidity Pressure Visibility Wind Dir Wind Speed Gust Speed Precip Events Conditions
12:15 AM 48.2 °F - 32.0 °F 54% 30.02 in 10.0 mi NNE 4.6 mph - N/A   Overcast
12:35 AM 48.2 °F - 32.0 °F 54% 30.02 in 9.0 mi North 6.9 mph - N/A   Overcast
12:55 AM 48.2 °F - 32.0 °F 54% 30.02 in 9.0 mi North 5.8 mph - N/A   Overcast
1:15 AM 48.2 °F - 32.0 °F 54% 30.03 in 9.0 mi North 5.8 mph - N/A   Overcast
1:35 AM 46.4 °F 45.2 °F 32.0 °F 57% 30.03 in 7.0 mi NNE 3.5 mph - N/A   Overcast
1:55 AM 48.2 °F - 32.0 °F 54% 30.04 in 8.0 mi North 4.6 mph - N/A   Overcast
2:15 AM 48.2 °F - 32.0 °F 54% 30.05 in 7.0 mi NNW 5.8 mph - N/A   Overcast
2:35 AM 48.2 °F - 32.0 °F 54% 30.05 in 8.0 mi North 5.8 mph - N/A   Overcast
2:55 AM 46.4 °F 42.9 °F 32.0 °F 57% 30.06 in 7.0 mi North 6.9 mph - N/A   Overcast
3:15 AM 46.4 °F 44.3 °F 32.0 °F 57% 30.05 in 7.0 mi North 4.6 mph - N/A   Overcast
3:35 AM 46.4 °F 43.5 °F 32.0 °F 57% 30.06 in 7.0 mi North 5.8 mph - N/A   Mostly Cloudy
3:55 AM 46.4 °F 44.3 °F 32.0 °F 57% 30.06 in 6.0 mi North 4.6 mph - N/A   Haze
4:15 AM 46.4 °F 44.3 °F 32.0 °F 57% 30.06 in 5.0 mi North 4.6 mph - N/A   Haze
4:35 AM 46.4 °F 43.5 °F 32.0 °F 57% 30.07 in 5.0 mi North 5.8 mph - N/A   Haze
4:55 AM 46.4 °F 45.2 °F 32.0 °F 57% 30.07 in 5.0 mi North 3.5 mph - N/A   Haze
5:15 AM 46.4 °F 45.2 °F 32.0 °F 57% 30.08 in 5.0 mi NNW 3.5 mph - N/A   Haze
5:35 AM 46.4 °F - 32.0 °F 57% 30.09 in 5.0 mi Calm Calm - N/A   Haze
5:55 AM 46.4 °F 45.2 °F 32.0 °F 57% 30.10 in 6.0 mi NNW 3.5 mph - N/A   Haze
6:15 AM 46.4 °F 45.2 °F 32.0 °F 57% 30.10 in 6.0 mi NNW 3.5 mph - N/A   Haze
6:35 AM 46.4 °F 44.3 °F 32.0 °F 57% 30.11 in 7.0 mi NNW 4.6 mph - N/A   Overcast
6:55 AM 46.4 °F 42.4 °F 32.0 °F 57% 30.11 in 7.0 mi NNW 8.1 mph - N/A   Overcast
7:15 AM 46.4 °F 42.9 °F 32.0 °F 57% 30.12 in 8.0 mi NNW 6.9 mph - N/A   Overcast
7:35 AM 48.2 °F - 32.0 °F 54% 30.13 in 7.0 mi North 8.1 mph - N/A   Overcast
7:55 AM 48.2 °F - 33.8 °F 58% 30.13 in 8.0 mi North 11.5 mph - N/A   Overcast
8:15 AM 48.2 °F - 33.8 °F 58% 30.13 in 8.0 mi North 10.4 mph - N/A   Overcast
8:35 AM 48.2 °F - 33.8 °F 58% 30.14 in 9.0 mi North 9.2 mph - N/A   Overcast
8:55 AM 50.0 °F - 33.8 °F 54% 30.14 in 8.0 mi North 6.9 mph - N/A   Overcast
9:15 AM 51.8 °F - 35.6 °F 54% 30.15 in 9.0 mi NNE 10.4 mph - N/A   Overcast
9:35 AM 51.8 °F - 35.6 °F 54% 30.15 in 9.0 mi North 9.2 mph - N/A   Overcast
9:55 AM 53.6 °F - 37.4 °F 54% 30.16 in 9.0 mi North 9.2 mph - N/A   Overcast
10:15 AM 53.6 °F - 37.4 °F 54% 30.16 in 9.0 mi North 10.4 mph - N/A   Overcast
10:35 AM 57.2 °F - 41.0 °F 55% 30.17 in 9.0 mi NNW 10.4 mph - N/A   Mostly Cloudy
10:55 AM 57.2 °F - 41.0 °F 55% 30.17 in 9.0 mi North 10.4 mph - N/A   Scattered Clouds
11:15 AM 59.0 °F - 42.8 °F 55% 30.17 in 9.0 mi North 9.2 mph - N/A   Partly Cloudy
11:35 AM 60.8 °F - 44.6 °F 55% 30.16 in 8.0 mi North 9.2 mph - N/A   Clear
11:55 AM 62.6 °F - 46.4 °F 55% 30.16 in 9.0 mi North 10.4 mph - N/A   Clear
12:15 PM 62.6 °F - 46.4 °F 55% 30.15 in 10.0 mi NNE 8.1 mph - N/A   Clear
12:35 PM 64.4 °F - 48.2 °F 56% 30.14 in 9.0 mi NNW 12.7 mph 17.3 mph N/A   Clear
12:55 PM 64.4 °F - 48.2 °F 56% 30.13 in 9.0 mi NNW 12.7 mph - N/A   Clear
1:15 PM 66.2 °F - 50.0 °F 56% 30.12 in 9.0 mi North 9.2 mph - N/A   Clear
1:35 PM 66.2 °F - 50.0 °F 56% 30.12 in 9.0 mi NNE 9.2 mph - N/A   Clear
1:55 PM 66.2 °F - 51.8 °F 60% 30.12 in 9.0 mi NNE 6.9 mph - N/A   Clear
2:15 PM 68.0 °F - 51.8 °F 56% 30.11 in 10.0 mi North 4.6 mph - N/A   Clear
2:35 PM 69.8 °F - 51.8 °F 53% 30.11 in 9.0 mi North 6.9 mph - N/A   Clear
2:55 PM 69.8 °F - 51.8 °F 53% 30.10 in 10.0 mi NW 9.2 mph - N/A   Clear
3:15 PM 69.8 °F - 51.8 °F 53% 30.10 in 9.0 mi North 5.8 mph - N/A   Clear
3:35 PM 69.8 °F - 53.6 °F 56% 30.09 in 9.0 mi NNE 6.9 mph - N/A   Clear
3:55 PM 69.8 °F - 53.6 °F 56% 30.09 in 9.0 mi North 4.6 mph - N/A   Clear
4:15 PM 69.8 °F - 53.6 °F 56% 30.09 in 10.0 mi NNW 10.4 mph 16.1 mph N/A   Clear
4:35 PM 69.8 °F - 53.6 °F 56% 30.09 in 9.0 mi NNW 4.6 mph 16.1 mph N/A   Clear
4:55 PM 69.8 °F - 53.6 °F 56% 30.09 in 9.0 mi NNW 5.8 mph - N/A   Clear
5:15 PM 69.8 °F - 53.6 °F 56% 30.09 in 10.0 mi North 8.1 mph - N/A   Clear
5:35 PM 69.8 °F - 53.6 °F 56% 30.08 in 9.0 mi NNW 8.1 mph - N/A   Clear
5:55 PM 69.8 °F - 51.8 °F 53% 30.08 in 10.0 mi North 6.9 mph - N/A   Clear
6:15 PM 68.0 °F - 51.8 °F 56% 30.08 in 10.0 mi North 5.8 mph - N/A   Clear
6:35 PM 66.2 °F - 50.0 °F 56% 30.08 in 9.0 mi North 5.8 mph - N/A   Clear
6:55 PM 64.4 °F - 48.2 °F 56% 30.08 in 10.0 mi Calm Calm - N/A   Clear
7:15 PM 60.8 °F - 44.6 °F 55% 30.08 in 10.0 mi Calm Calm - N/A   Clear
7:35 PM 57.2 °F - 41.0 °F 55% 30.09 in 10.0 mi Calm Calm - N/A   Clear
7:55 PM 53.6 °F - 37.4 °F 54% 30.10 in 10.0 mi Calm Calm - N/A   Clear
8:15 PM 51.8 °F - 35.6 °F 54% 30.11 in 10.0 mi Calm Calm - N/A   Clear
8:35 PM 50.0 °F - 35.6 °F 58% 30.11 in 10.0 mi Calm Calm - N/A   Clear
8:55 PM 48.2 °F - 33.8 °F 58% 30.12 in 10.0 mi Calm Calm - N/A   Clear
9:15 PM 48.2 °F - 33.8 °F 58% 30.12 in 10.0 mi Calm Calm - N/A   Clear
9:35 PM 46.4 °F - 32.0 °F 57% 30.12 in 10.0 mi Calm Calm - N/A   Clear
9:55 PM 46.4 °F - 32.0 °F 57% 30.13 in 10.0 mi Calm Calm - N/A   Clear
10:15 PM 46.4 °F - 32.0 °F 57% 30.13 in 10.0 mi Calm Calm - N/A   Clear
10:35 PM 44.6 °F - 32.0 °F 61% 30.13 in 10.0 mi Calm Calm - N/A   Clear
10:55 PM 44.6 °F - 30.2 °F 57% 30.13 in 9.0 mi Calm Calm - N/A   Clear
11:15 PM 44.6 °F - 32.0 °F 61% 30.13 in 10.0 mi Calm Calm - N/A   Clear
11:35 PM 44.6 °F - 30.2 °F 57% 30.13 in 9.0 mi Calm Calm - N/A   Clear
11:55 PM 42.8 °F - 30.2 °F 61% 30.13 in 7.0 mi Calm Calm - N/A   Clear